Columbia, MO

11:30 AM CDT on May 20, 2018 (GMT -0500)
Columbia Regional

Weather History for KCOU - December, 2013

Change the Weather History Date:

Thursday, December 19, 2013

  Actual Average Record
Temperature  
Mean Temperature 50 °F 31 °F  
Max Temperature 58 °F 40 °F 75 °F (1889)
Min Temperature 42 °F 23 °F -16 °F (1901)
Degree Days  
Heating Degree Days 15 34  
Month to date heating degree days 646 593  
Since 1 July heating degree days 1653 1578  
Cooling Degree Days 0 0  
Month to date cooling degree days 0 0  
Year to date cooling degree days 1322 1249  
Growing Degree Days 2 (Base 50)    
Moisture  
Dew Point 43 °F    
Average Humidity 69    
Maximum Humidity 77    
Minimum Humidity 61    
Precipitation  
Precipitation 0.00 in 0.07 in 2.45 in (1895)
Month to date precipitation 1.07 1.60  
Year to date precipitation 40.88 41.78  
Snow  
Snow 0.00 in 0.20 in 4.70 in (1973)
Month to date snowfall 2.4 2.4  
Since 1 July snowfall 2.4 3.3  
Snow Depth 0.00 in    
Sea Level Pressure  
Sea Level Pressure 29.80 in    
Wind  
Wind Speed 13 mph (South)    
Max Wind Speed 25 mph    
Max Gust Speed 30 mph    
Visibility 10 miles    
Events      
T = Trace of Precipitation, MM = Missing Value Source: NWS Daily Summary

Daily Weather History Graph

Daily Weather History Graph

Search for Another Location

Airport or City:

Astronomy

Dec. 19, 2013 Rise Set
Actual Time 7:22 AM CST 4:49 PM CST
Civil Twilight 6:52 AM CST 5:19 PM CST
Nautical Twilight 6:19 AM CST 5:53 PM CST
Astronomical Twilight 5:46 AM CST 6:25 PM CST
Moon 7:14 PM CST (12/19) 8:42 AM CST (12/19)
Length of Visible Light 10h 26m
Length of Day
9h 26m
Waning Gibbous, 95% of the Moon is Illuminated
Dec 19
Waning Gibbous
Dec 25
Last Quarter
Jan 1
New
Jan 7
First Quarter
Jan 15
Full

Hourly Weather History & Observations

Time (CST) Temp. Windchill Dew Point Humidity Pressure Visibility Wind Dir Wind Speed Gust Speed Precip Events Conditions
12:54 AM 43.0 °F 36.8 °F 34.0 °F 71% 29.88 in 10.0 mi South 11.5 mph - N/A   Clear
1:54 AM 44.1 °F 37.7 °F 35.1 °F 71% 29.88 in 10.0 mi South 12.7 mph - N/A   Clear
2:54 AM 44.1 °F 38.6 °F 35.1 °F 71% 29.87 in 10.0 mi South 10.4 mph - N/A   Clear
3:54 AM 43.0 °F 37.2 °F 36.0 °F 76% 29.85 in 10.0 mi South 10.4 mph - N/A   Clear
4:54 AM 44.1 °F 38.1 °F 37.0 °F 76% 29.84 in 10.0 mi South 11.5 mph - N/A   Clear
5:54 AM 46.0 °F 39.9 °F 37.9 °F 73% 29.83 in 10.0 mi South 13.8 mph - N/A   Clear
6:54 AM 46.9 °F - 37.9 °F 71% 29.84 in 10.0 mi South 12.7 mph - N/A   Clear
7:54 AM 48.0 °F - 39.0 °F 71% 29.84 in 10.0 mi South 15.0 mph - N/A   Clear
8:54 AM 48.9 °F - 39.9 °F 71% 29.85 in 10.0 mi South 12.7 mph - N/A   Clear
9:54 AM 52.0 °F - 41.0 °F 66% 29.86 in 10.0 mi South 13.8 mph 24.2 mph N/A   Clear
10:54 AM 55.0 °F - 43.0 °F 64% 29.87 in 10.0 mi SSW 19.6 mph 28.8 mph N/A   Clear
11:36 AM 55.0 °F - 44.1 °F 67% 29.86 in 10.0 mi SSW 18.4 mph - N/A   Mostly Cloudy
11:54 AM 55.9 °F - 45.0 °F 67% 29.84 in 10.0 mi South 13.8 mph - N/A   Overcast
11:59 AM 55.9 °F - 45.0 °F 67% 29.84 in 10.0 mi South 16.1 mph 23.0 mph N/A   Overcast
12:54 PM 57.9 °F - 46.0 °F 65% 29.81 in 10.0 mi South 16.1 mph 23.0 mph N/A   Overcast
1:54 PM 55.9 °F - 46.0 °F 69% 29.78 in 10.0 mi South 10.4 mph - N/A   Overcast
2:54 PM 57.0 °F - 46.9 °F 69% 29.75 in 10.0 mi South 11.5 mph - N/A   Overcast
3:54 PM 55.9 °F - 46.9 °F 72% 29.75 in 10.0 mi South 12.7 mph - N/A   Overcast
4:20 PM 55.9 °F - 46.9 °F 72% 29.74 in 10.0 mi South 15.0 mph - N/A   Overcast
4:54 PM 55.0 °F - 46.9 °F 74% 29.75 in 10.0 mi SSE 11.5 mph - N/A   Overcast
5:54 PM 55.0 °F - 46.9 °F 74% 29.75 in 10.0 mi South 13.8 mph - N/A   Overcast
6:54 PM 55.0 °F - 46.9 °F 74% 29.75 in 10.0 mi South 15.0 mph - N/A   Overcast
7:54 PM 55.0 °F - 46.9 °F 74% 29.74 in 10.0 mi South 11.5 mph - N/A   Overcast
8:54 PM 55.0 °F - 46.9 °F 74% 29.74 in 10.0 mi South 12.7 mph - N/A   Overcast
9:54 PM 54.0 °F - 46.9 °F 77% 29.74 in 10.0 mi South 11.5 mph - N/A   Overcast
10:54 PM 54.0 °F - 46.9 °F 77% 29.73 in 10.0 mi South 11.5 mph - N/A   Overcast
11:52 PM 53.6 °F - 48.2 °F 82% 29.73 in 10.0 mi South 9.2 mph - N/A   Overcast
11:54 PM 54.0 °F - 48.0 °F 80% 29.73 in 10.0 mi South 8.1 mph - N/A   Overcast